Meteo Giornale » Osservazioni meteo Slovacchia » Piestany

ore: 22:30 - Osservazioni Meteo Piestany
Lat. 48° 37' N Lon. 17° 49' E Alt. 163 metri s.l.m.

coperto_pioggia Europe/Bratislava

20 °C

Pioggia Debole

Temp. 24 Ore

15 °C

24 °C

Sud

9.3 Km/h

Dew point 16 °C

Umidità 77 %

Visibilità  10 Km

Il sole sorge alle ore 05:25

Il sole tramonta alle ore 20:24

Data e Ora Cielo e Fenomeni T °C DP °C Um. % Pres. hPa Vis. km Vento km/h
Oggi h: 22:30 coperto_pioggia Pioggia Debole 20 16 77 1012 10 S 9.3
Oggi h: 22:00 poco_nuvoloso Poco Nuvoloso 21 16 73 1013 10 N 5.5
Oggi h: 21:30 poco_nuvoloso Poco Nuvoloso 21 16 73 1013 10 N 5.5
Oggi h: 21:00 poco_nuvoloso Poco Nuvoloso 21 16 73 1013 10 N 5.5
Oggi h: 20:30 poco_nuvoloso Poco Nuvoloso 21 15 68 1013 10 N 3.7
Oggi h: 20:00 poco_nuvoloso Poco Nuvoloso 22 16 68 1012 10 N/NO 9.3
Oggi h: 19:30 poco_nuvoloso Poco Nuvoloso 22 16 68 1013 10 NO 7.4
Oggi h: 19:00 poco_nuvoloso Poco Nuvoloso 22 16 68 1013 10 N 5.5
Oggi h: 18:30 poco_nuvoloso Poco Nuvoloso 23 14 56 1013 10 N 3.7
Oggi h: 18:00 poco_nuvoloso Poco Nuvoloso 24 15 57 1013 10 N 1.8
Oggi h: 17:30 nuvoloso Nuvoloso 24 15 57 1013 10 O 7.4
Oggi h: 17:00 nuvoloso Nuvoloso 24 14 53 1013 10 N 5.5
Oggi h: 16:30 nuvoloso Nuvoloso 24 14 53 1013 10 N 3.7
Oggi h: 16:00 poco_nuvoloso Poco Nuvoloso 24 14 53 1014 10 S/SO 7.4
Oggi h: 15:30 poco_nuvoloso Poco Nuvoloso 23 14 56 1014 10 N 3.7
Oggi h: 14:30 nuvoloso Nuvoloso 23 14 56 1014 10 N 5.5
Oggi h: 14:00 poco_nuvoloso Poco Nuvoloso 23 15 60 1014 10 O/NO 9.3
Oggi h: 13:30 poco_nuvoloso Poco Nuvoloso 22 15 64 1015 10 N 5.5
Oggi h: 13:00 poco_nuvoloso Poco Nuvoloso 22 14 60 1014 10 N 7.4
Oggi h: 12:00 poco_nuvoloso Poco Nuvoloso 22 15 64 1015 10 NO 11.1
Oggi h: 11:30 poco_nuvoloso Poco Nuvoloso 21 14 64 1015 10 N 11.1
Oggi h: 11:00 poco_nuvoloso Poco Nuvoloso 21 15 68 1015 10 NO 9.3
Oggi h: 10:30 poco_nuvoloso Poco Nuvoloso 20 15 72 1015 10 N/NO 7.4
Oggi h: 10:00 poco_nuvoloso Poco Nuvoloso 20 15 72 1015 10 N/NO 7.4
Oggi h: 09:30 poco_nuvoloso Poco Nuvoloso 20 15 72 1015 10 N/NO 7.4
Oggi h: 09:00 poco_nuvoloso Poco Nuvoloso 19 15 77 1015 10 N 7.4
Oggi h: 08:30 poco_nuvoloso Poco Nuvoloso 18 15 82 1015 10 N 5.5
Oggi h: 08:00 poco_nuvoloso Poco Nuvoloso 17 15 88 1015 10 N 5.5
Oggi h: 07:30 sereno Sereno 17 15 88 1015 10 N 7.4
Oggi h: 07:00 sereno Sereno 16 15 93 1015 10 N 9.3
Oggi h: 06:30 sereno Sereno 15 14 93 1014 10 N 7.4
Oggi h: 06:00 sereno Sereno 15 14 93 1014 10 N/NO 9.3
Oggi h: 05:30 sereno Sereno 15 14 93 1014 10 N/NO 7.4
Oggi h: 05:00 sereno Sereno 16 14 87 1014 10 N 3.7
Oggi h: 04:30 sereno Sereno 15 14 93 1014 10 N 3.7
Oggi h: 04:00 sereno Sereno 16 14 87 1013 10 N 5.5
Oggi h: 03:30 sereno Sereno 16 14 87 1013 10 N 11.1
Oggi h: 03:00 sereno Sereno 17 15 88 1014 10 N/NO 13
Oggi h: 02:30 sereno Sereno 19 15 77 1014 10 N 11.1
Oggi h: 02:00 molto_nuvoloso Molto Nuvoloso 18 15 82 1014 10 N 5.5
Oggi h: 01:30 sereno Sereno 18 15 82 1014 10 N/NE 9.3
Oggi h: 01:00 sereno Sereno 18 16 88 1014 10 NO 9.3
Oggi h: 00:30 sereno Sereno 18 15 82 1014 10 N 5.5
Oggi h: 00:00 sereno Sereno 18 15 82 1013 10 NO 7.4